www.pogodaiklimat.ru
ПОГОДА в Нью-Йорке
Время
и дата
12:51 27.06
13:51 27.06
14:03 27.06
14:12 27.06
14:47 27.06
14:51 27.06
15:51 27.06
16:51 27.06
17:51 27.06
18:51 27.06
19:51 27.06
20:51 27.06
21:51 27.06
22:51 27.06
23:51 27.06
00:51 28.06
01:51 28.06
02:51 28.06
03:51 28.06
04:51 28.06
05:51 28.06
06:51 28.06
07:51 28.06
08:51 28.06
09:51 28.06
10:51 28.06
11:51 28.06
12:51 28.06
13:51 28.06
14:51 28.06
15:51 28.06
16:51 28.06
17:51 28.06
18:51 28.06
19:51 28.06
20:51 28.06
21:51 28.06
22:51 28.06
23:51 28.06
00:51 29.06
01:51 29.06
02:51 29.06
03:51 29.06
04:51 29.06
05:51 29.06
06:51 29.06
07:51 29.06
08:51 29.06
Ветер
(напр.,м/с)
Видим. Явления Облачность Т
(С)
Тd
(С)
f
(%)
Тe
(С)
Тes
(С)
Комфортность P
(гПа)
Po
(гПа)
Тmin
(С)
Tmax
(С)
R
(мм)
R24
(мм)
S
(см)
ЮЗ 2 16 км 8/8 450 м
[Ac]
+25.6 +21.1 76 +32 +35 очень
душно
1013.0 1012.4 +23.9 +26.1 1.0
нст 1 16 км слабый дождь 10/8 450 м
[Ac]
+24.4 +20.6 79 +30 +32 очень
душно
1013.2 1012.4
СЗ 3 2 км сильный дождь 10/10 450 м +22.2 +19.4 84 +28 +28 душно 1012.7
СЗ 1 2 км сильный дождь, дымка 10/10 210 м +21.7 +19.4 87 +27 +27 душно 1012.7
В 1 10 км слабый дождь, дымка 10/10 210 м +22.0 +20.0 88 +28 +28 душно 1012.4
В 1 10 км дымка 10/10 210 м +22.2 +20.0 87 +28 +28 душно 1013.1 1012.4
В 1 16 км слабый дождь 10/5 1140 м
[Ac Ci]
+23.3 +18.3 73 +29 +32 душно 1012.9 1012.0 10.9
Ю 1 16 км 10/2 300 м
[Ac Ci]
+23.9 +19.4 76 +29 +32 душно 1013.4 1012.7
СЗ 1 16 км слабый дождь 8/2 1500 м
[Ac Ci]
+24.4 +18.3 69 +29 +31 душно 1013.6 1012.7
СЗ 2 16 км 8/2 1500 м
[Ac Ci]
+23.3 +17.2 69 +29 +29 душно 1014.1 1013.4 +21.1 +25.6 10.9
СЗ 2 16 км 8/2 1500 м
[Ac Ci]
+24.4 +16.1 60 +28 +28 душно 1014.8 1014.1
СЗ 1 16 км 8/2 1500 м
[Ac Ci]
+22.8 +16.7 68 +27 +27 душно 1015.5 1014.7
СЗ 1 16 км 8/0 6000 м
[Ac Ci]
+22.2 +17.2 73 +27 +27 душно 1015.4 1014.7
СЗ 1 16 км 5/0 6000 м
[Ac Ci]
+21.7 +16.7 73 +26 +26 душно 1015.9 1015.1
СВ 1 16 км 8/0 6000 м
[Ac Ci]
+20.6 +15.0 70 +24 +24 комфорт 1016.5 1015.8
С 1 16 км 8/5 1200 м
[Ac]
+20.6 +13.3 63 +23 +23 комфорт 1017.1 1016.4 +20.0 +24.4
С 1 16 км 8/0 2250 м
[Ac]
+20.6 +12.8 61 +23 +23 комфорт 1017.5 1016.8
С 1 16 км 8/0 2250 м
[Ac]
+20.0 +12.2 61 +22 +22 комфорт 1017.7 1017.1
СЗ 2 16 км 8/8 1650 м
[Ac]
+20.0 +10.6 55 +21 +21 комфорт 1018.1 1017.4
С 2 16 км 8/8 1800 м
[Ac]
+20.0 +8.9 49 +21 +21 комфорт 1018.8 1018.1
С 1 16 км 8/8 1800 м
[Ac]
+20.0 +9.4 50 +22 +22 комфорт 1019.4 1018.8
СЗ 2 16 км 8/8 1800 м +20.0 +8.3 47 +21 +21 комфорт 1020.2 1019.5 +20.0 +21.1 11.9
СЗ 2 16 км 8/5 1800 м
[Ci]
+20.6 +7.8 44 +22 +23 комфорт 1020.5 1019.8
СЗ 2 16 км 5/2 1800 м
[Ci]
+21.7 +7.8 41 +23 +26 комфорт 1020.5 1019.8
С 2 16 км 5/2 1800 м
[Ci]
+22.8 +7.8 38 +24 +28 комфорт 1020.6 1019.8
З 1 16 км 2/2 1800 м
[Ci]
+23.3 +7.8 37 +24 +38 комфорт 1020.7 1019.8
В 1 16 км 5/5 1650 м
[Ci]
+22.8 +7.8 38 +24 +32 комфорт 1020.9 1020.2
СЗ 2 16 км 5/5 1800 м
[Ci]
+24.4 +8.9 37 +25 +32 комфорт 1020.8 1020.2 +20.0 +25.0
СВ 2 16 км 8/5 1800 м
[Ci]
+24.4 +9.4 39 +25 +30 комфорт 1021.0 1020.2
нст 1 16 км 8/8 1800 м
[Ci]
+25.0 +9.4 37 +26 +28 жарко 1020.8 1020.2
В 2 16 км 8/5 1800 м
[Ci]
+25.0 +9.4 37 +26 +29 жарко 1020.3 1019.5
СВ 2 16 км 8/5 1950 м
[Ci]
+26.1 +9.4 35 +27 +28 жарко 1020.2 1019.5
СВ 1 16 км 8/5 1950 м
[Ci]
+25.6 +8.9 35 +26 +27 жарко 1020.5 1019.8
Ю 2 16 км 8/5 1950 м
[Ci]
+23.3 +11.1 46 +26 +26 жарко 1021.0 1020.2 +23.3 +26.1
Ю 2 16 км 5/2 1800 м
[Ci]
+22.8 +12.2 51 +25 +25 комфорт 1021.6 1020.8
Ю 2 16 км 5/2 1950 м
[Ci]
+22.2 +11.7 51 +24 +24 комфорт 1022.0 1021.2
Ю 1 16 км 8/0 2100 м
[Ac Ci]
+22.2 +11.1 49 +24 +24 комфорт 1022.1 1021.2
Ю 1 16 км 8/0 7500 м
[Ci]
+21.7 +12.2 55 +24 +24 комфорт 1022.4 1021.5
ЮЗ 1 16 км 2/0 7500 м
[Ci]
+21.7 +12.8 57 +24 +24 комфорт 1022.4 1021.5
ЮЗ 1 16 км 2/0 7500 м
[Ci]
+21.7 +13.3 59 +24 +24 комфорт 1022.5 1021.8 +21.1 +23.3
штиль 0 16 км 2/2 1500 м
[Ci]
+20.6 +13.9 65 +23 +23 комфорт 1022.6 1021.8
штиль 0 16 км 5/0 7500 м
[Ci]
+20.6 +13.9 65 +23 +23 комфорт 1022.6 1021.8
штиль 0 16 км 8/5 1800 м
[Ci]
+19.4 +15.0 76 +21 +21 комфорт 1022.7 1021.8
В 1 16 км 8/2 1800 м
[Ci]
+18.9 +15.6 81 +21 +21 комфорт 1023.2 1022.5
штиль 0 16 км 8/0 7500 м
[Ci]
+20.6 +15.0 70 +23 +23 комфорт 1023.4 1022.5
штиль 0 16 км 8/0 7500 м
[Ci]
+22.8 +14.4 59 +26 +28 жарко 1023.7 1022.9 +18.9 +22.8
СВ 1 16 км 8/0 7500 м
[Ci]
+23.9 +13.9 54 +26 +30 жарко 1023.7 1022.9
нст 1 16 км 2/2 1800 м
[Ci]
+25.0 +10.6 40 +26 +33 жарко 1023.4 1022.5
Местоположение метеостанции La Guardia Airport: широта 40.7792 долгота -73.8800 высота над уровнем моря 6 м.
В архиве по умолчанию представлена погода в Нью-Йорке за последние 1-2 суток. Обновление информации о фактической погоде в базе происходит ежечасно! Архивные данные за месяц целиком и за предыдущие месяцы Вы можете получить, выбрав интересующий диапазон дат из раскрывающегося списка и нажав кнопку "Ввод!".
Внимание! Архив погоды МЕТАР в базе сайта по станциям, не включенным в климатический монитор, хранится не более 60 дней. Нет смысла пытаться выбрать более раннюю дату.
*Определитесь, кто Вы:
Внимание! Время в таблицах - местное (без учета летнего времени). Для получения всемирного времени необходимо вычесть поправку, которая равна -5 ч.
Смотрите также архив погоды в соседних городах и на ближайших метеорологических станциях:
Партнеры нашего сайта:      
Пояснения к столбцам:
  • Ветер - указаны скорость ветра в м/с - средняя за 10 мин, порывы в срок и между сроками (в фигурных скобках) и направление, откуда дует ветер: С - северный,
  • СВ - северо-восточный, В - восточный, ЮВ - юго-восточный, Ю - южный, ЮЗ - юго-западный, З - западный, СЗ - северо-западный.
  • Видимость - горизонтальная дальность видимости в метрах или километрах. При видимости от 1 до 10 км при отсутствии осадков обычно наблюдается дымка, при ухудшении видимости до 1 км и менее - туман. В сухую погоду видимость может ухудшаться дымом, пылью или мглою.
  • Явления - указаны атмосферные явления, наблюдавшиеся в срок или в последний час перед сроком; фигурными скобками обозначены явления, наблюдавшиеся между сроками (за 1-3 часа до срока); квадратными скобками обозначены град или гололедные отложения с указанием их диаметра в мм.
  • Облачность - указаны через наклонную черту общая и нижняя облачность в баллах и высота нижней границы облаков в метрах; квадратными скобками обозначены формы облаков: Ci - перистые, Cs - перисто-слоистые, Cc - перисто-кучевые, Ac - высококучевые, As - высокослоистые, Sc - слоисто-кучевые, Ns - слоисто-дождевые, Cu - кучевые, Cb - кучево-дождевые. Подробнее классификацию облаков см. в Атласе облаков (PDF).
  • T - Температура воздуха - температура, измеренная на высоте 2 м над землей.
  • Td - Температура точки росы - температура, при понижении до которой содержащийся в воздухе водяной пар достигнет насыщения.
  • f - Относительная влажность воздуха - влажноcть воздуха, измеренная на высоте 2 м над землей.
  • Te - Эффективная температура - температура, которую ощущает одетый по сезону человек в тени. Характеристика душности погоды. При расчете учитывается влияние влажности воздуха и скорости ветра на теплоощущения человека.
  • Tes - Эффективная температура на солнце - температура, которую ощущает человек, с поправкой на солнечный нагрев. Характеристика знойности погоды. Зависит от высоты солнца над горизонтом, облачности и скорости ветра. Ночью, в пасмурную погоду, а также при ветре 12 м/с и более поправка равна нулю.
  • P - Атмосферное давление - приведенное к уровню моря атмосферное давление.
  • Po - Атмосферное давление - измеренное на уровне метеостанции атмосферное давление.
  • Tmin - Минимальная температура - минимум температуры воздуха на высоте 2 м над землей.
  • Tmax - Максимальная температура - максимум температуры воздуха на высоте 2 м над землей.
  • R - Количество осадков - Количество выпавших осадков за период времени, мм. При наведении курсора мыши на число - период времени, за который выпало указанное количество осадков.
  • R24 - Количество осадков - Количество выпавших осадков за 24 часа, мм.
  • S - Снежный покров - Высота снежного покрова, см. При наведении курсора мыши на число - состояние снежного покрова и степень покрытия местности в баллах.